Temperature
22 22 22 22 20 20 22 23 24 24 24 24 24 23 22 21 21 20 20 20 20 20 20 20 20 20 20 20 20 20 20 20 20 20 20 20 20 20 20 20 20 20 20 20 19 19 19 19 19
23 23 22 22 20 21 22 23 23 24 24 24 24 23 22 21 20 20 20 20 20 21 20 20 20 20 20 20 20 20 20 20 20 20 20 20 20 20 20 20 20 20 20 19 19 19 19 19 19
23 23 23 20 21 21 22 23 23 24 25 24 23 22 21 21 20 20 20 20 21 21 20 20 20 20 20 20 20 20 20 20 20 20 20 20 20 20 20 20 20 19 19 19 19 19 19 19 19
24 23 23 21 22 22 22 22 24 24 23 23 22 21 20 20 20 20 20 20 21 20 20 20 20 20 20 20 20 20 20 20 20 20 20 20 20 20 20 19 19 19 19 19 19 19 19 19 19
24 23 21 21 21 21 21 23 23 23 22 22 21 20 20 20 20 20 20 20 21 20 20 20 20 20 20 20 20 20 20 20 20 20 20 20 20 19 19 19 19 19 19 19 19 19 19 19 19
24 22 21 20 21 21 21 21 22 21 21 21 21 20 19 20 20 20 20 20 20 20 20 20 20 20 20 20 20 20 20 20 20 20 20 19 19 19 19 19 19 19 19 19 19 19 19 19 19
24 21 21 21 20 20 21 22 21 20 20 19 20 20 19 19 20 20 20 20 20 20 19 20 19 19 19 19 19 19 20 20 19 19 19 19 19 19 19 19 19 19 19 19 19 19 19 19 19
25 20 21 20 20 20 21 21 20 20 19 19 19 19 18 19 19 19 19 19 19 19 19 19 19 19 19 19 19 19 19 19 19 19 19 19 19 19 19 19 19 19 19 19 19 19 19 19 19
25 19 20 20 20 20 20 21 20 19 18 18 18 18 18 19 19 19 19 19 19 19 19 19 19 19 19 19 19 19 19 19 19 19 19 19 19 19 19 19 19 19 19 19 19 19 19 19 19
23 20 21 21 20 19 19 19 19 18 18 18 18 18 18 19 19 19 19 19 19 18 18 18 18 18 18 19 19 19 19 18 18 18 18 19 19 19 19 19 19 18 19 19 19 19 19 19 19
22 21 21 21 20 20 19 18 19 18 17 18 18 18 18 19 19 18 18 18 18 18 18 18 18 18 18 18 18 18 18 18 18 18 18 18 18 18 19 19 18 18 18 19 19 19 19 19 19
21 21 22 21 21 20 19 19 18 18 18 18 18 18 18 18 18 18 18 18 17 17 17 18 18 18 18 18 18 18 18 18 18 18 18 18 18 18 18 18 18 18 18 18 19 19 19 19 19
21 21 21 20 20 19 19 18 18 18 18 18 18 18 18 18 18 17 17 17 17 17 17 17 17 17 17 17 17 18 18 18 18 18 18 18 18 18 18 18 18 18 18 18 18 19 19 19 19
22 22 21 20 20 19 19 18 18 18 18 18 18 18 18 17 17 17 17 17 17 16 16 16 16 16 16 17 17 17 17 17 17 17 18 18 18 18 18 18 18 18 18 18 18 18 19 19 18
23 21 21 20 20 19 19 18 18 18 18 18 18 17 17 17 17 16 16 16 16 16 16 16 16 16 16 16 16 16 17 17 17 17 17 17 18 18 18 18 18 18 18 18 18 18 18 18 18
22 20 20 20 20 20 19 17 18 18 18 18 17 17 17 16 16 16 16 15 15 15 15 15 15 15 15 15 16 16 16 16 16 17 17 17 17 17 17 18 18 18 18 18 18 18 18 18 18
21 20 20 20 21 20 18 17 18 18 18 17 17 17 16 16 16 15 15 15 15 15 15 14 14 15 15 15 15 15 15 16 16 16 16 17 17 17 17 17 17 17 17 17 18 18 18 18 18
22 21 20 20 20 19 17 16 17 18 18 17 16 16 16 16 15 15 15 15 14 14 14 14 14 14 14 14 14 15 15 15 15 16 16 16 16 17 17 17 17 17 17 17 17 17 18 18 18
23 21 20 20 21 19 17 16 16 17 17 16 16 16 16 15 15 15 14 14 14 14 14 14 14 14 14 14 14 14 14 15 15 15 15 16 16 16 16 16 17 17 17 17 17 17 17 18 18
22 20 20 21 21 19 17 16 16 17 17 16 16 16 15 15 15 14 14 14 14 13 13 13 13 13 13 13 13 13 14 14 14 15 15 15 16 16 16 16 16 16 17 17 17 17 17 17 17
21 21 20 20 20 19 17 16 16 16 16 16 16 15 15 15 14 14 14 14 13 13 13 13 13 13 13 13 13 13 14 14 14 14 15 15 15 15 16 16 16 16 16 16 17 17 17 17 17
21 22 22 21 19 17 17 14 15 15 15 15 15 15 15 15 14 14 14 13 13 13 13 13 13 13 13 13 13 13 13 13 13 14 14 14 15 15 15 15 16 16 16 16 16 16 17 17 17
21 22 21 21 19 18 17 15 14 15 15 14 15 15 15 14 14 14 13 13 13 12 12 12 12 13 13 13 13 13 13 13 13 13 14 14 14 14 15 15 15 15 16 16 16 16 16 16 16
21 20 18 16 16 17 17 15 14 13 15 15 15 15 15 14 14 14 13 13 13 13 12 12 12 12 12 13 13 12 13 13 13 13 13 14 14 14 15 15 15 15 15 15 16 16 16 16 16
19 16 16 16 15 16 17 15 14 15 15 15 15 15 15 14 14 14 13 13 13 12 12 12 12 12 12 12 12 12 12 12 12 13 13 13 14 14 14 14 15 15 15 15 15 15 16 16 16
20 17 16 17 16 16 16 15 14 16 16 16 15 15 15 14 14 14 13 13 13 12 12 12 12 12 12 12 12 12 12 12 12 12 13 13 13 14 14 14 14 14 15 15 15 15 15 15 16
20 18 17 15 17 16 15 15 15 16 15 15 15 15 15 14 14 14 13 13 13 12 12 12 12 12 12 12 12 12 12 12 12 12 13 13 13 13 14 14 14 14 14 15 15 15 15 15 15
20 18 15 16 17 16 16 15 14 15 14 14 14 15 15 15 14 14 14 13 13 13 12 12 12 12 12 12 12 12 12 12 12 12 13 13 13 13 13 14 14 14 14 14 15 15 15 15 15
19 19 16 14 14 15 15 15 15 14 14 14 15 15 15 15 14 14 14 13 13 13 12 12 12 12 12 12 12 12 12 12 12 12 12 13 13 13 13 13 14 14 14 14 14 14 15 15 15
20 18 16 15 16 14 14 14 16 15 15 15 15 15 15 15 15 14 14 14 13 13 13 12 12 12 11 11 12 12 12 12 12 12 12 12 12 13 13 13 13 13 14 14 14 14 14 14 14
Wind_Speed
7 5 3 1 4 5 5 4 5 8 7 8 12 12 9 7 5 6 3 11 14 11 13 13 13 12 11 11 11 10 9 9 8 8 8 7 7 6 6 6 6 6 6 6 6 5 5 5 5
3 3 2 3 5 5 4 5 9 8 8 9 11 11 9 7 7 7 5 11 14 14 13 13 13 12 11 11 10 9 9 8 8 7 7 7 6 6 6 6 5 5 5 5 5 5 5 4 4
3 2 2 4 4 5 4 4 9 10 10 7 6 7 6 4 5 4 7 13 13 13 13 14 14 13 12 11 10 9 9 8 8 7 7 7 6 6 6 5 5 5 5 5 4 4 4 3 3
3 2 4 6 7 5 4 3 8 7 9 9 7 7 5 6 4 6 12 13 12 11 13 15 15 13 12 11 10 9 9 8 8 7 7 7 7 6 5 5 5 5 5 4 4 4 3 3 2
3 4 6 6 6 5 6 7 9 11 6 9 10 7 5 7 8 10 10 10 11 9 12 14 15 13 12 11 10 10 9 9 8 8 8 7 7 7 6 6 5 5 5 4 4 4 4 3 2
4 4 5 4 5 5 5 7 9 12 9 8 7 6 4 5 7 6 7 7 7 7 8 11 14 13 12 11 11 10 10 10 9 9 9 8 8 8 7 7 6 6 6 5 5 5 5 4 4
5 4 3 4 4 4 3 4 7 7 8 7 5 4 3 6 5 5 6 6 6 5 4 4 8 10 11 12 12 12 12 12 11 11 10 10 9 9 9 8 8 8 7 7 6 6 6 6 5
5 5 4 2 2 1 4 4 7 8 7 5 6 5 3 4 4 6 7 7 6 5 3 1 1 4 6 9 11 13 14 14 13 13 12 12 11 11 11 10 10 10 9 9 8 8 8 7 7
5 5 3 3 4 2 3 3 6 7 8 7 6 5 2 4 5 8 8 7 6 5 4 3 2 1 5 7 9 11 12 14 14 14 15 14 12 12 12 12 13 12 12 11 10 10 9 9 8
5 4 3 3 5 5 5 6 5 5 8 7 6 6 5 7 8 9 9 8 7 6 5 4 3 2 3 4 6 7 9 10 12 12 13 12 12 12 12 13 15 15 14 13 12 12 11 10 8
5 5 4 3 6 7 6 6 5 6 7 4 4 5 6 7 8 9 8 6 6 5 6 5 3 4 3 3 4 4 6 8 10 12 13 12 11 10 11 10 12 13 14 12 11 11 10 9 8
6 4 4 4 5 5 5 6 6 7 3 1 2 3 5 7 7 7 6 6 5 5 6 6 4 4 4 4 4 4 4 5 6 10 12 10 6 6 7 8 9 10 9 8 8 7 9 10 10
6 6 7 11 14 11 12 9 7 4 2 2 3 6 6 7 7 6 6 6 6 6 7 6 5 4 4 3 3 3 3 4 6 7 8 10 6 5 5 6 8 9 9 8 6 6 7 7 8
8 10 11 11 11 7 12 7 5 1 2 3 4 5 7 7 6 7 8 8 8 8 8 7 7 5 4 3 3 3 4 5 6 6 8 9 7 6 5 5 5 7 9 10 8 7 6 6 6
9 9 6 4 6 6 9 7 3 1 4 5 5 5 7 6 6 6 6 6 7 7 8 8 8 6 6 5 5 4 5 6 5 6 8 8 9 7 5 5 6 6 9 10 7 7 5 5 5
5 5 2 3 6 6 7 4 1 2 7 6 5 5 7 6 6 6 6 6 7 7 8 8 9 8 7 6 5 5 6 5 5 6 7 7 8 8 5 5 6 6 6 5 5 5 4 4 3
2 2 3 2 3 4 6 5 3 3 7 5 5 5 6 6 7 7 7 7 7 7 8 8 8 8 8 7 5 5 5 5 5 6 5 6 7 8 6 6 5 6 4 4 5 4 4 4 3
3 3 3 4 3 6 6 6 4 3 7 6 5 5 6 6 5 6 7 7 8 8 8 8 8 8 8 6 5 5 5 5 4 4 5 6 6 7 6 5 6 6 5 5 5 4 3 3 3
3 4 4 3 4 5 7 7 5 4 5 6 5 5 5 4 4 6 7 7 8 8 8 8 8 8 7 5 5 5 5 5 5 4 6 6 6 6 5 6 6 6 7 7 7 5 4 3 2
8 8 4 1 3 5 7 5 3 3 4 4 4 3 3 5 6 7 7 7 8 8 8 8 8 8 8 6 5 4 5 5 5 4 5 6 5 5 5 6 6 7 6 7 7 6 4 3 3
6 5 4 3 1 4 7 3 1 1 3 4 3 2 3 4 5 6 7 7 8 8 9 9 9 9 8 8 5 5 4 4 4 4 4 4 5 5 4 5 5 6 7 7 8 8 7 5 3
1 2 3 3 3 3 6 4 5 3 2 1 1 2 3 4 4 4 6 7 8 8 8 8 9 9 9 8 6 6 5 5 5 5 5 6 5 5 4 4 5 5 5 7 8 8 6 6 5
4 3 1 1 3 0 1 5 4 3 2 2 1 1 3 3 4 5 5 6 7 8 8 8 9 9 9 8 7 6 5 5 5 5 5 5 5 4 4 4 4 5 5 6 7 6 7 6 6
1 6 7 6 5 2 3 6 5 4 4 3 1 2 2 3 4 4 5 6 6 7 8 8 9 9 9 9 8 7 7 7 6 6 6 5 4 3 4 4 4 4 4 5 6 6 8 7 7
7 6 5 6 4 4 1 4 4 5 5 4 3 1 2 3 3 5 6 7 8 8 8 8 9 9 10 10 9 8 8 7 6 6 6 5 4 3 4 4 3 3 4 5 5 6 6 8 8
1 7 6 2 3 4 4 1 4 4 4 4 4 2 2 2 3 4 5 6 7 8 8 8 8 8 9 9 9 8 8 6 5 6 5 5 4 4 4 3 3 3 4 4 5 5 6 6 8
2 2 6 6 0 1 2 2 3 2 2 3 3 1 2 3 3 4 5 5 6 7 7 7 7 8 9 9 8 8 8 8 7 7 6 5 4 4 4 3 2 2 2 3 4 4 4 5 6
1 3 6 3 1 2 3 4 5 7 6 4 3 3 3 3 3 4 5 5 5 5 6 6 6 7 7 8 8 7 8 8 8 7 8 7 7 6 5 5 4 3 1 1 2 3 4 4 4
3 3 4 4 4 4 3 6 5 9 8 7 6 5 3 3 3 4 5 5 5 5 5 5 6 6 7 8 8 8 8 8 8 8 8 8 7 7 7 6 5 4 4 2 1 1 2 3 3
3 4 5 3 1 2 3 6 3 8 8 7 6 5 4 3 4 4 5 4 5 5 5 5 5 5 6 6 7 8 8 8 9 9 9 8 8 7 7 6 6 5 4 4 3 1 1 3 3
Wind_Direction
191 170 126 111 55 52 57 27 61 62 61 63 73 79 79 59 84 123 135 145 138 146 151 149 146 143 141 140 140 140 140 139 138 137 136 133 131 129 127 122 116 111 109 108 103 102 98 92 82
146 146 155 63 77 73 50 54 60 70 115 103 76 76 72 66 75 96 114 142 142 146 150 152 150 148 147 146 145 144 145 146 146 146 146 144 142 141 139 135 129 123 122 122 119 113 108 101 90
140 179 89 59 76 104 85 64 81 73 68 74 73 51 55 52 66 104 147 148 147 149 152 155 156 155 154 153 152 152 152 153 154 154 156 156 154 154 154 150 145 138 133 132 130 126 122 116 106
118 60 43 65 64 45 70 68 87 76 48 45 83 63 53 32 33 121 144 150 150 151 156 161 161 162 163 162 162 162 164 166 168 169 170 170 169 167 167 168 163 156 152 151 151 150 145 141 140
80 71 53 57 55 32 36 42 69 73 64 58 75 86 55 23 71 115 135 144 147 152 161 167 168 170 171 172 174 176 178 181 184 185 185 186 185 184 182 181 179 175 174 171 170 172 173 178 194
64 69 72 67 52 36 17 26 59 70 72 55 61 86 66 31 67 103 119 124 136 149 160 172 176 178 180 183 187 190 192 196 198 198 199 198 197 197 196 196 194 191 189 189 190 192 196 207 220
105 94 96 116 87 59 24 33 52 65 55 25 11 75 55 16 30 76 86 93 93 105 135 165 183 187 193 196 200 202 204 207 208 209 208 206 207 208 207 207 207 204 202 204 207 207 211 221 231
117 100 87 91 96 48 339 47 58 51 55 32 32 62 28 339 14 61 68 68 72 68 66 82 167 204 213 215 216 217 215 215 215 215 214 214 215 216 216 215 214 213 212 214 216 217 221 228 237
86 78 123 176 167 157 349 67 67 55 69 56 51 61 26 358 37 54 51 45 46 45 35 33 37 247 237 234 230 229 227 226 225 222 220 218 218 221 224 223 220 219 219 219 221 224 230 235 243
79 109 178 187 148 126 68 58 87 68 54 45 42 36 33 31 41 49 42 31 25 19 15 10 343 318 281 257 253 243 238 239 233 227 225 221 217 221 228 231 229 225 223 222 224 228 235 241 245
85 132 147 112 130 127 101 64 42 98 56 35 39 27 32 41 40 45 38 28 16 8 9 2 350 344 322 295 286 261 249 244 239 232 230 226 221 222 229 232 234 230 225 221 225 229 233 239 243
94 69 109 112 124 96 91 98 68 65 108 123 82 60 48 43 39 38 29 14 1 1 353 347 345 346 335 319 301 274 259 249 240 233 229 222 219 218 222 223 218 215 211 208 217 224 232 239 245
107 114 93 98 93 95 97 94 99 82 113 80 57 51 46 48 40 29 24 16 5 357 346 338 332 338 334 327 314 307 281 265 254 247 234 219 214 219 220 224 214 208 203 205 212 221 228 235 241
130 120 120 118 109 104 100 90 86 98 111 93 70 53 46 54 47 33 22 12 3 357 348 340 336 340 335 324 309 294 287 277 265 249 242 228 216 214 212 219 214 211 209 208 209 213 220 229 230
111 108 104 122 119 135 105 63 64 159 95 75 61 55 52 51 47 37 21 10 1 353 350 347 343 346 335 322 311 310 295 291 275 264 257 239 223 219 210 210 216 215 214 212 210 214 220 230 227
99 103 136 208 160 162 109 109 225 118 100 81 67 61 53 42 36 25 15 8 0 355 349 344 347 340 329 320 307 302 299 292 282 280 273 254 233 224 217 212 212 205 204 208 205 201 199 217 210
91 154 194 205 166 135 116 148 199 125 109 92 71 61 53 36 24 14 9 4 357 355 347 342 338 334 327 321 310 305 300 290 287 286 280 269 253 233 216 218 215 197 194 205 211 200 189 192 193
225 209 183 182 162 115 120 148 169 140 111 100 81 63 47 33 9 357 2 1 355 351 348 343 339 336 330 326 321 315 310 299 291 283 276 271 261 246 225 223 214 195 191 201 200 192 189 183 181
132 123 133 166 148 119 137 147 164 144 105 93 76 57 34 11 350 356 360 357 355 352 349 345 342 337 337 331 326 318 314 306 298 286 281 275 266 253 232 232 218 205 201 202 195 186 188 188 152
83 90 91 94 158 121 127 133 158 142 121 119 104 67 19 0 355 351 357 357 351 347 344 343 339 333 330 320 305 287 290 289 285 288 290 283 275 261 246 228 218 210 206 204 201 186 178 184 162
73 116 154 189 84 95 111 79 137 92 98 98 94 67 10 9 353 347 352 349 347 345 340 340 332 331 328 325 320 319 314 309 312 310 301 289 284 270 254 235 221 213 205 206 206 193 180 181 181
123 183 166 162 129 216 157 174 225 190 114 76 56 15 355 352 352 346 347 343 340 335 334 332 331 330 330 331 332 330 324 310 294 291 288 293 286 275 261 239 225 218 209 209 209 197 186 171 176
219 252 269 208 164 290 122 138 241 181 194 249 263 323 345 344 356 350 341 331 330 332 336 335 333 334 334 336 333 329 324 309 304 305 303 301 292 276 267 250 232 222 215 214 212 200 188 182 179
16 22 25 47 73 332 250 154 229 222 205 209 246 325 330 339 350 342 334 335 334 336 338 337 339 335 337 339 341 339 334 329 332 329 321 315 306 290 279 261 239 225 217 214 213 205 198 194 187
55 63 25 9 12 266 346 116 229 216 188 176 178 243 307 328 343 336 338 340 336 337 337 337 342 340 340 343 345 342 336 336 336 326 320 322 319 311 297 276 244 228 220 213 208 204 203 199 193
23 129 140 196 244 284 8 151 247 211 173 157 167 195 325 332 325 327 325 327 329 332 333 337 342 341 342 346 345 342 342 341 336 331 328 324 315 302 299 296 267 237 223 215 204 205 206 203 202
55 103 168 147 234 352 314 299 298 202 171 173 177 182 319 317 313 310 315 320 324 328 328 331 337 340 342 345 344 347 350 350 346 343 341 334 332 332 336 331 302 256 222 210 201 203 202 198 201
132 135 72 82 69 319 292 244 231 209 208 196 193 213 269 295 306 305 309 308 312 320 322 332 339 337 337 346 352 356 350 352 354 360 2 359 356 360 2 5 10 12 352 205 197 200 199 187 191
29 51 82 110 146 156 275 270 223 193 190 191 204 214 232 256 269 278 291 297 307 322 331 342 344 344 347 350 351 354 355 355 359 7 6 4 7 12 16 17 20 26 19 28 73 205 184 176 181
142 143 131 131 273 166 202 269 250 178 183 185 196 210 221 240 251 262 282 302 317 324 329 340 344 348 346 349 355 358 360 2 7 8 4 7 11 13 18 23 25 26 23 33 47 44 136 156 167
Height
1536 1535 1535 1537 1539 1546 1547 1539 1532 1530 1531 1531 1529 1531 1535 1539 1543 1550 1547 1548 1550 1551 1552 1553 1554 1555 1556 1556 1557 1557 1557 1558 1558 1558 1559 1559 1559 1559 1559 1559 1559 1559 1559 1559 1559 1559 1559 1559 1559
1536 1535 1537 1537 1545 1557 1551 1539 1536 1533 1534 1532 1533 1535 1537 1541 1543 1545 1546 1549 1551 1551 1552 1554 1554 1555 1556 1556 1557 1557 1557 1558 1558 1558 1558 1558 1559 1559 1559 1559 1559 1559 1559 1559 1559 1559 1559 1559 1559
1536 1535 1537 1539 1547 1555 1551 1540 1536 1535 1535 1533 1536 1539 1541 1545 1546 1547 1548 1550 1551 1552 1553 1554 1554 1555 1556 1556 1556 1557 1557 1557 1557 1557 1558 1558 1558 1558 1558 1558 1558 1558 1558 1558 1558 1558 1559 1559 1559
1537 1537 1538 1544 1551 1547 1544 1541 1536 1536 1537 1537 1538 1543 1546 1548 1547 1548 1550 1551 1552 1553 1553 1554 1555 1555 1555 1556 1556 1556 1557 1557 1557 1557 1557 1557 1557 1557 1557 1557 1557 1557 1558 1558 1558 1558 1558 1558 1559
1536 1538 1545 1552 1552 1549 1544 1542 1539 1539 1541 1543 1542 1547 1550 1550 1549 1549 1550 1552 1553 1553 1553 1554 1555 1555 1555 1556 1556 1556 1556 1556 1556 1556 1556 1556 1556 1556 1557 1557 1557 1557 1557 1557 1557 1557 1557 1558 1558
1538 1540 1554 1561 1556 1551 1548 1546 1543 1544 1547 1547 1547 1549 1553 1553 1552 1552 1552 1553 1553 1553 1553 1554 1554 1555 1555 1555 1555 1555 1555 1555 1555 1555 1555 1555 1555 1555 1555 1556 1556 1556 1556 1556 1556 1556 1556 1557 1557
1539 1545 1555 1558 1557 1554 1550 1548 1548 1549 1549 1550 1550 1552 1554 1554 1554 1553 1553 1553 1553 1553 1553 1553 1553 1554 1554 1554 1554 1554 1554 1554 1554 1554 1554 1554 1554 1554 1554 1554 1554 1555 1555 1555 1555 1555 1555 1556 1556
1538 1545 1555 1558 1558 1557 1552 1551 1552 1552 1553 1554 1553 1554 1556 1556 1555 1554 1554 1553 1553 1553 1553 1553 1553 1553 1552 1552 1552 1552 1552 1552 1552 1552 1552 1552 1552 1552 1553 1553 1553 1553 1553 1554 1554 1554 1554 1555 1555
1538 1550 1559 1556 1556 1555 1553 1553 1555 1557 1556 1556 1557 1557 1558 1557 1556 1554 1554 1554 1553 1553 1552 1552 1551 1551 1551 1551 1550 1550 1550 1550 1550 1550 1550 1550 1550 1550 1551 1551 1551 1551 1552 1552 1552 1553 1553 1554 1554
1539 1553 1553 1549 1550 1553 1554 1554 1557 1559 1558 1559 1560 1559 1559 1557 1556 1555 1554 1554 1553 1552 1551 1551 1550 1549 1549 1548 1548 1548 1547 1547 1547 1548 1548 1548 1548 1548 1549 1549 1549 1549 1550 1550 1551 1551 1552 1552 1553
1540 1548 1548 1549 1550 1552 1555 1557 1558 1559 1562 1562 1562 1561 1560 1558 1557 1556 1555 1554 1553 1552 1551 1550 1549 1547 1547 1546 1545 1545 1545 1545 1545 1545 1545 1545 1545 1545 1546 1546 1547 1547 1548 1548 1549 1549 1550 1551 1552
1543 1547 1547 1550 1552 1553 1556 1558 1561 1561 1564 1564 1563 1562 1561 1559 1558 1557 1556 1555 1553 1552 1550 1549 1547 1546 1544 1543 1542 1542 1541 1541 1541 1541 1542 1542 1542 1542 1543 1543 1544 1544 1545 1546 1547 1548 1549 1550 1551
1543 1548 1550 1551 1552 1555 1557 1559 1561 1564 1565 1564 1564 1563 1562 1561 1559 1558 1557 1555 1553 1551 1549 1547 1545 1544 1542 1540 1539 1538 1538 1537 1537 1537 1538 1538 1538 1539 1539 1540 1541 1542 1543 1544 1545 1546 1547 1548 1549
1543 1547 1551 1553 1554 1557 1558 1562 1563 1565 1565 1565 1564 1564 1562 1561 1560 1558 1556 1554 1552 1549 1547 1545 1543 1541 1539 1537 1536 1535 1534 1533 1533 1533 1533 1533 1534 1534 1535 1536 1537 1538 1540 1541 1542 1544 1545 1546 1547
1544 1549 1553 1554 1554 1558 1559 1565 1566 1565 1565 1565 1565 1564 1563 1561 1560 1558 1556 1553 1550 1548 1545 1543 1540 1538 1536 1534 1532 1531 1530 1529 1528 1528 1528 1528 1529 1529 1530 1532 1532 1534 1536 1538 1539 1541 1542 1543 1545
1546 1553 1559 1555 1554 1557 1561 1572 1567 1565 1565 1565 1565 1564 1563 1561 1560 1557 1555 1552 1549 1546 1543 1540 1537 1534 1532 1530 1528 1526 1525 1524 1523 1523 1523 1523 1524 1525 1526 1527 1528 1530 1532 1534 1535 1537 1538 1540 1542
1551 1559 1559 1556 1553 1555 1561 1569 1566 1565 1565 1565 1564 1563 1562 1561 1559 1557 1554 1551 1547 1544 1541 1537 1534 1531 1528 1526 1524 1522 1521 1520 1519 1518 1518 1518 1519 1520 1520 1522 1524 1525 1527 1529 1531 1533 1535 1536 1538
1556 1557 1557 1557 1553 1555 1562 1566 1565 1565 1565 1565 1564 1563 1562 1560 1559 1556 1553 1550 1546 1542 1539 1535 1531 1528 1525 1522 1520 1518 1517 1515 1514 1514 1513 1513 1514 1515 1515 1517 1518 1520 1522 1524 1527 1529 1531 1533 1535
1544 1551 1556 1555 1551 1556 1563 1567 1566 1566 1565 1565 1564 1563 1562 1560 1558 1555 1552 1548 1545 1540 1537 1533 1529 1526 1522 1519 1516 1514 1512 1511 1510 1509 1508 1509 1509 1510 1510 1512 1513 1515 1517 1519 1522 1524 1527 1529 1532
1545 1553 1557 1554 1551 1557 1566 1569 1567 1566 1566 1566 1565 1564 1562 1560 1557 1554 1551 1547 1543 1539 1535 1531 1527 1523 1520 1517 1514 1511 1509 1507 1505 1505 1504 1504 1504 1505 1505 1506 1508 1510 1512 1514 1517 1520 1522 1525 1528
1550 1554 1556 1556 1554 1558 1566 1574 1571 1568 1567 1567 1565 1564 1562 1560 1557 1553 1550 1546 1542 1538 1533 1529 1525 1522 1518 1515 1511 1509 1506 1504 1502 1501 1500 1499 1499 1499 1500 1501 1503 1505 1507 1509 1512 1514 1517 1520 1523
1554 1547 1548 1552 1561 1569 1566 1583 1575 1570 1569 1567 1565 1563 1561 1559 1556 1553 1549 1545 1541 1537 1533 1529 1524 1521 1517 1513 1510 1506 1503 1500 1499 1497 1496 1495 1495 1495 1496 1497 1498 1500 1502 1504 1506 1509 1512 1515 1517
1548 1544 1547 1550 1557 1565 1567 1579 1578 1570 1570 1567 1565 1563 1561 1559 1556 1553 1549 1545 1541 1537 1533 1528 1524 1520 1516 1512 1508 1505 1502 1499 1496 1495 1493 1492 1491 1491 1492 1492 1494 1495 1497 1499 1501 1504 1507 1510 1512
1544 1548 1552 1559 1566 1575 1566 1575 1578 1573 1567 1565 1564 1562 1560 1558 1556 1553 1549 1545 1541 1537 1533 1528 1524 1520 1516 1512 1508 1504 1501 1497 1495 1492 1491 1490 1489 1489 1489 1489 1490 1491 1493 1495 1497 1499 1502 1505 1508
1550 1564 1578 1578 1585 1580 1565 1571 1574 1565 1563 1562 1562 1562 1560 1558 1555 1552 1548 1545 1541 1537 1533 1529 1524 1520 1516 1512 1507 1504 1501 1497 1494 1492 1490 1489 1487 1487 1486 1486 1487 1488 1489 1491 1493 1495 1498 1500 1503
1553 1563 1580 1587 1587 1580 1569 1573 1571 1562 1562 1561 1561 1561 1559 1557 1554 1552 1548 1545 1541 1537 1533 1529 1525 1521 1517 1513 1508 1505 1501 1498 1495 1492 1490 1488 1486 1485 1484 1484 1484 1485 1486 1488 1490 1491 1493 1496 1498
1554 1560 1562 1575 1574 1580 1577 1573 1567 1562 1562 1562 1561 1560 1558 1556 1554 1551 1548 1545 1541 1538 1534 1530 1526 1522 1518 1514 1510 1506 1502 1498 1495 1492 1490 1487 1485 1484 1483 1482 1482 1482 1483 1484 1487 1488 1490 1492 1495
1551 1555 1567 1573 1580 1586 1577 1575 1575 1565 1563 1561 1560 1559 1557 1555 1553 1551 1548 1545 1542 1538 1535 1531 1527 1523 1519 1515 1511 1507 1503 1500 1496 1493 1490 1488 1485 1483 1482 1481 1480 1480 1480 1482 1484 1485 1487 1489 1491
1555 1557 1565 1575 1578 1586 1587 1579 1559 1558 1558 1559 1558 1557 1556 1554 1553 1550 1548 1545 1542 1539 1535 1532 1528 1524 1520 1516 1513 1509 1505 1501 1498 1494 1491 1488 1486 1484 1482 1480 1479 1479 1479 1480 1482 1483 1485 1486 1488
1551 1555 1564 1575 1576 1579 1585 1578 1553 1554 1555 1556 1556 1556 1555 1553 1552 1550 1547 1545 1542 1539 1536 1532 1529 1525 1522 1518 1514 1511 1507 1503 1499 1496 1493 1490 1487 1485 1483 1481 1480 1479 1479 1479 1480 1481 1482 1484 1486